sat.trackr.live / text

‹ back to catalog

STARLINK-11671 [DTC]

NORAD 64319 · 2025-124C

PAYLOAD ACTIVE UNKNOWN

§ Identity

Operator
Country
US
Launch date
2025-06-10
Launch site
AFETR
Launch vehicle
Mass (kg)
RCS (m²)

Purposes: comms

External: N2YO · Heavens-Above · Gunter

§ Orbital elements

Epoch: 2026-05-24T18:47:37.485600Z

Period
91.67 min
Inclination
43.0003°
Eccentricity
0.0001539
Mean motion
15.70864563 rev/d
Perigee alt
355.4 km
Apogee alt
357.5 km
Semi-major
6,734.6 km
B*
1.4174e-3
RAAN
290.3931°
Arg perigee
257.5117°
Mean anomaly
102.5579°
Rev number
5,480

§ Raw data

STARLINK-11671 [DTC]1 64319U 25124C   26144.78307275  .00185741  00000+0  14174-2 0  99972 64319  43.0003 290.3931 0001539 257.5117 102.5579 15.70864563 54809

JSON: /api/v1/satellites/64319 · /tle

For live sub-satellite position, see the globe view (requires WebGL).

§ Visibility from observer

Set your observer location to see the next 7 days of passes ≥ 10°. The values pass through the URL so the page stays shareable.

No JS? Fill the form by hand. The geolocation button needs JavaScript.